Flag for Cyprus Weather past 2 weeks in Larnaca, Cyprus

Now
79 °F

Sunny.


Feels Like: 81 °F
Forecast: 64 / 88 °F
Wind: 16 mph from Southwest

Location: Larnaca Airport

Current Time: May 24, 2015 at 6:41:55 PM

Latest Report: May 24, 2015 at 6:00 PM


Visibility: 10 mi

Pressure: 29.86 "Hg

Humidity: 61%

Dew point: 64 °F

Location of LarnacaLocation

Historic Weather in Larnaca — Graph

°F

Larnaca temperature yesterday

Maximum temperature yesterday: 81 °F (at 1:30 PM)
Minimum temperature yesterday: 64 °F (at 2:30 AM)
Average temperature yesterday: 72 °F

Past Weeks' High & Low Weather Summary

 TemperatureHumidityPressure
High93 °F (May 18, 2:00 PM)100% (May 24, 12:30 AM)30.21 "Hg (May 24, 12:30 AM)
Low57 °F (May 15, 4:30 AM)21% (May 20, 5:00 PM)29.65 "Hg (May 9, 6:00 PM)
Average73 °F62%29.88 "Hg
* Reported May 9 5:00 PM — May 24 5:30 PM, Larnaca, Weather by CustomWeather, © 2015

Note: Actual official high and low records may vary slightly from our data, if they occured in-between our weather recording intervals... More about our weather records

Advertising

Larnaca weather history for previous 24 hours

 ConditionsComfort  
Time TempWeatherWind HumidityBarometerVisibility
5:30 PM
Sun, May 24
79 °FSunny.17 mph61%29.86 "Hg10 mi
5:00 PM77 °FPassing clouds.20 mph69%29.86 "HgN/A
4:30 PM79 °FPassing clouds.23 mph61%29.86 "HgN/A
4:00 PM81 °FPassing clouds.20 mph54%29.89 "HgN/A
3:30 PM81 °FPassing clouds.17 mph51%29.89 "HgN/A
3:00 PM82 °FPassing clouds.17 mph42%29.89 "HgN/A
2:30 PM84 °FSunny.14 mph37%29.89 "Hg10 mi
2:00 PM82 °FSunny.14 mph40%29.89 "Hg10 mi
1:30 PM81 °FSunny.12 mph51%29.89 "Hg10 mi
1:00 PM79 °FClear.13 mph58%29.92 "Hg5 mi
12:30 PM77 °FClear.12 mph69%29.92 "Hg5 mi
12:00 PM79 °FClear.9 mph61%29.92 "Hg5 mi
11:30 AM77 °FClear.6 mph69%29.92 "Hg5 mi
11:00 AM75 °FClear.5 mph74%29.92 "Hg5 mi
10:30 AM75 °FPassing clouds.5 mph78%29.89 "Hg5 mi
10:00 AM75 °FScattered clouds.5 mph78%29.89 "Hg5 mi
9:30 AM73 °FScattered clouds.5 mph83%29.89 "Hg5 mi
9:00 AM75 °FScattered clouds.5 mph78%29.89 "Hg5 mi
8:30 AM72 °FPartly sunny.3 mph88%29.89 "Hg5 mi
8:00 AM72 °FBroken clouds.1 mph83%29.89 "Hg5 mi
7:30 AM70 °FScattered clouds.1 mph83%29.89 "HgN/A
7:00 AM68 °FPassing clouds.1 mph78%29.86 "HgN/A
6:30 AM66 °FPassing clouds.2 mph83%29.86 "HgN/A
6:00 AM64 °FPassing clouds.2 mph83%29.86 "HgN/A
5:30 AM64 °FPassing clouds.2 mph83%29.86 "HgN/A
5:00 AM64 °FPassing clouds.2 mph88%29.86 "HgN/A
4:30 AM64 °FPassing clouds.1 mph83%29.86 "HgN/A
4:00 AM64 °FPassing clouds.3 mph83%29.86 "HgN/A
3:30 AM66 °FPassing clouds.3 mph78%29.86 "HgN/A
3:00 AM64 °FClear.2 mph88%29.86 "Hg5 mi
2:30 AM66 °FClear.3 mph83%29.86 "Hg5 mi
2:00 AM64 °FClear.3 mph88%29.89 "Hg5 mi
1:30 AM66 °FClear.2 mph88%29.89 "Hg4 mi
1:00 AM66 °FClear.2 mph94%29.86 "Hg4 mi
12:30 AM68 °FFog.3 mph100%29.89 "Hg3 mi
12:00 AM70 °FFog.5 mph94%29.89 "Hg3 mi
11:30 PM
Sat, May 23
70 °FClear.3 mph94%29.89 "Hg4 mi
11:00 PM70 °FClear.5 mph94%29.86 "Hg4 mi
10:30 PM70 °FClear.No wind94%29.86 "Hg4 mi
10:00 PM70 °FClear.3 mph94%29.86 "Hg4 mi
9:30 PM70 °FClear.7 mph94%29.86 "Hg4 mi
9:00 PM70 °FClear.8 mph94%29.86 "Hg5 mi
8:30 PM72 °FPassing clouds.8 mph88%29.86 "HgN/A
8:00 PM72 °FSunny.10 mph88%29.83 "Hg10 mi
7:30 PM73 °FSunny.18 mph83%29.83 "Hg10 mi
7:00 PM73 °FSunny.18 mph83%29.83 "Hg10 mi
6:30 PM75 °FSunny.20 mph78%29.80 "Hg10 mi
6:00 PM77 °FPassing clouds.22 mph74%29.80 "HgN/A
Weather by CustomWeather, © 2015

See weather overviewHow to use our weather pages